[[{"header":{"parameterUnit":"m.s-1","parameterCategory":1,"la1":30.2991,"la2":30.254,"lo1":-89.0895,"lo2":-89.0444,"dy":0.0017,"dx":0.0017,"nx":28,"ny":28,"refTime":"2025-07-28T21:00:00:Z","depth":0,"parameterNumber":2,"parameterNumberName":"U-component_of_WINDS"},"data":[0,0,0,0,0,0,0,0,0,0,0,0,0,0,0,0,0,0,0,0,0,0,0,0,0,0,0,0,0,0,0,0,0,0,0,0,0,0,0,0,0,0,0,0,0,0,0,0,0,0,0,0,0,0,0,0,0,0,1.9343,1.9343,0,1.9338,1.9338,1.9338,1.9302,1.9301,1.9301,1.93,1.9293,1.9294,1.9295,0,0,0,0,0,0,0,0,0,0,0,0,0,1.9323,1.9324,1.9343,1.9343,1.9343,1.9338,1.9338,1.9338,1.9302,1.9301,1.93,1.9299,1.9293,1.9294,1.9295,0,0,0,0,0,0,0,0,0,0,0,0,0,1.9326,1.9324,1.9343,1.9325,1.9323,1.9338,1.9338,1.9338,1.9303,1.9301,1.93,1.9299,1.9293,1.9294,1.9295,1.9326,0,0,1.9298,1.9298,0,0,0,0,0,0,0,0,1.9326,1.9327,1.9327,1.9326,1.9324,1.9319,1.9328,1.9334,1.9303,1.931,1.93,1.9298,1.9303,1.9303,1.9305,1.9326,1.9326,1.9298,1.9298,1.9299,1.9299,0,0,0,0,0,0,0,1.9326,1.9327,1.9341,1.9327,1.9325,1.9317,1.9316,1.9329,1.9314,1.931,1.9307,1.9307,1.9302,1.9304,1.9304,1.9326,1.9298,1.9299,1.9299,1.93,1.9376,1.9377,0,0,0,0,0,0,1.9328,1.9327,1.9341,1.9341,1.9322,1.9318,1.9317,1.9322,1.9314,1.9311,1.9308,1.9305,1.9303,1.9303,1.9304,1.9342,1.9299,1.93,1.93,1.9374,1.9376,1.9378,0,0,0,0,0,0,1.9328,1.933,1.9341,1.9333,1.9334,1.932,1.9326,1.9323,1.9325,1.9313,1.931,1.9313,1.9302,1.9303,1.9322,1.9342,1.93,1.9301,1.9373,1.9375,1.9377,1.9418,0,0,0,0,0,0,1.9328,1.933,1.9341,1.9334,1.9335,1.9359,1.9327,1.9324,1.9327,1.9323,1.9316,1.9314,1.9301,1.9321,1.9323,1.9342,1.9302,1.9371,1.9374,1.9376,1.9415,1.9422,1.9427,0,0,0,0,0,1.9327,1.9353,1.9342,1.9344,1.9349,1.936,1.936,1.9345,1.9328,1.934,1.9333,1.9314,1.9339,1.9323,1.9325,1.9345,1.9369,1.9373,1.9376,1.9412,1.942,1.9427,0,0,0,0,0,0,1.9362,1.9351,1.9339,1.9363,1.9363,1.9354,1.9368,1.9354,1.9358,1.9354,1.9335,1.9334,1.9356,1.9352,1.9334,1.9377,1.9351,1.9355,1.9378,1.9386,1.9392,1.9392,1.9302,0,0,0,0,0,1.9372,1.9383,1.9373,1.9394,1.9395,1.9382,1.9386,1.9375,1.9374,1.9373,1.9367,1.9366,1.9374,1.938,1.9386,1.9414,1.9413,1.9429,1.9436,1.9441,1.9444,1.9461,1.9469,1.9388,1.9388,1.9388,0,0,1.9394,1.9389,1.9397,1.9401,1.94,1.9412,1.9382,1.9395,1.9403,1.9375,1.9393,1.9389,1.9387,1.9412,1.9422,1.9409,1.9467,1.9445,1.9449,1.945,1.9465,1.9473,1.948,1.9391,1.939,1.939,0,0,1.944,1.9437,1.9456,1.9455,1.9454,1.9445,1.945,1.9444,1.9441,1.9459,1.9438,1.9449,1.9462,1.9462,1.9464,1.9513,1.9497,1.9516,1.9547,1.9564,1.9571,1.9576,1.9595,1.9602,1.9519,1.952,1.952,0,1.9466,1.9483,1.9467,1.9482,1.9486,1.9462,1.9482,1.9482,1.9483,1.9486,1.9471,1.949,1.9486,1.9512,1.9524,1.9526,1.9532,1.9516,1.9571,1.9577,1.9582,1.96,1.9607,1.9522,1.9522,1.9521,1.9521,0,1.9517,1.9529,1.9545,1.9548,1.9553,1.957,1.9557,1.9565,1.9554,1.9547,1.9567,1.9563,1.9569,1.9575,1.9563,1.9599,1.9592,1.9574,1.9549,1.9592,1.9609,1.9615,1.9525,1.9525,1.9524,1.9523,0,0,1.9583,1.9579,1.9585,1.9587,1.9585,1.9594,1.9611,1.9618,1.9625,1.9627,1.9642,1.9655,1.964,1.9643,1.9631,1.9646,1.9688,1.9627,1.9627,1.964,1.973,1.9743,1.9751,1.9677,1.9678,1.9679,1.973,0,1.9628,1.9657,1.9645,1.9675,1.9687,1.9666,1.9681,1.9682,1.9677,1.9687,1.9681,1.9691,1.967,1.9672,1.9685,1.968,1.9706,1.9676,1.9691,1.9692,1.9693,1.976,1.9773,1.9822,1.9736,1.9737,1.9738,0,1.9684,1.969,1.9722,1.972,1.9725,1.9738,1.9745,1.9755,1.9756,1.9751,1.9756,1.9742,1.9759,1.9734,1.9759,1.9739,1.9745,1.9744,1.9745,1.9746,1.9718,1.9764,1.9836,1.9844,1.9748,1.9747,1.9747,0,1.9731,1.9746,1.9768,1.977,1.9768,1.9779,1.9779,1.9779,1.9785,1.9791,1.9795,1.9803,1.9807,1.9814,1.9803,1.9785,1.983,1.9803,1.9828,1.9828,1.9838,1.9838,1.9914,1.9841,1.9841,1.984,1.984,0,1.9782,1.9803,1.979,1.9803,1.9827,1.9813,1.9836,1.9834,1.9834,1.9848,1.983,1.9843,1.9827,1.9839,1.983,1.9854,1.9855,1.9853,1.985,1.9855,1.9856,1.9859,1.9855,1.9842,1.9842,1.9842,1.9841,0,1.9838,1.983,1.9853,1.985,1.985,1.9867,1.9865,1.9878,1.9873,1.989,1.9893,1.9885,1.9898,1.9888,1.99,1.9895,1.9926,1.9918,1.9926,1.9924,1.995,1.9948,2.0031,2.0042,1.9961,1.9962,1.9962,0,1.9872,1.9888,1.9888,1.9896,1.9897,1.991,1.9917,1.9904,1.9912,1.9916,1.9929,1.9941,1.995,1.9972,1.9967,1.9978,1.9971,1.9999,1.9972,1.9977,1.9973,1.9973,1.9975,2.0005,2.0006,2.0007,2.0007,0,1.9934,1.993,1.994,1.995,1.9959,1.9966,1.9971,1.9979,1.9966,1.9976,1.999,1.9997,2.0011,2.0024,2.0033,2.0033,2.0019,2.0016,2.0022,2.0027,2.0032,2.0031,1.9942,2.0014,2.0013,2.0013,2.0012,2.0012,1.9981,1.9995,1.9998,2.0011,2.0014,2.002,2.0033,2.003,2.0041,2.0052,2.0044,2.0062,2.0065,2.0075,2.0078,2.0091,2.008,2.0089,2.0091,2.0094,2.0098,2.0029,2.0093,2.0093,2.0092,2.0092,2.0092,0,2.0043,2.0044,2.0056,2.0066,2.0076,2.0063,2.0069,2.0079,2.0094,2.0098,2.0108,2.0126,2.0138,2.0136,2.0147,2.0159,2.0153,2.0163,2.0162,2.0163,2.0107,2.0101,2.0168,2.0168,2.0168,2.0168,2.0168,2.0168,2.0077,2.0101,2.0097,2.0123,2.0124,2.0142,2.0146,2.0153,2.0156,2.0177,2.0188,2.0186,2.0188,2.02,2.0212,2.0211,2.0217,2.0229,2.0226,2.0174,2.0166,2.0159,2.0154,2.023,2.023,2.0281,2.0281,2.0281]},{"header":{"parameterUnit":"m.s-1","parameterCategory":1,"la1":30.2991,"la2":30.254,"lo1":-89.0895,"lo2":-89.0444,"dy":0.0017,"dx":0.0017,"nx":28,"ny":28,"refTime":"2025-07-28T21:00:00:Z","depth":0,"parameterNumber":3,"parameterNumberName":"V-component_of_WINDS"},"data":[0,0,0,0,0,0,0,0,0,0,0,0,0,0,0,0,0,0,0,0,0,0,0,0,0,0,0,0,0,0,0,0,0,0,0,0,0,0,0,0,0,0,0,0,0,0,0,0,0,0,0,0,0,0,0,0,0,0,-3.8888,-3.8889,0,-3.8985,-3.8986,-3.8987,-3.9,-3.8999,-3.8998,-3.8998,-3.9092,-3.9095,-3.9099,0,0,0,0,0,0,0,0,0,0,0,0,0,-3.8714,-3.8717,-3.8888,-3.8889,-3.8891,-3.8985,-3.8986,-3.8987,-3.9,-3.8999,-3.8998,-3.8997,-3.9091,-3.9095,-3.9099,0,0,0,0,0,0,0,0,0,0,0,0,0,-3.8798,-3.8718,-3.8888,-3.8909,-3.8912,-3.8984,-3.8986,-3.8988,-3.9001,-3.8999,-3.8998,-3.8997,-3.909,-3.9094,-3.9099,-3.9157,0,0,-3.9115,-3.9117,0,0,0,0,0,0,0,0,-3.8793,-3.8804,-3.8904,-3.8907,-3.8911,-3.8979,-3.8959,-3.9044,-3.9001,-3.8967,-3.8998,-3.8996,-3.9055,-3.9063,-3.9084,-3.9161,-3.9165,-3.9115,-3.9118,-3.912,-3.9122,0,0,0,0,0,0,0,-3.8787,-3.88,-3.8926,-3.8906,-3.891,-3.8913,-3.8923,-3.8975,-3.9017,-3.897,-3.8971,-3.8982,-3.9057,-3.9079,-3.9086,-3.9167,-3.9115,-3.9119,-3.9123,-3.9125,-3.93,-3.9301,0,0,0,0,0,0,-3.8778,-3.8795,-3.8923,-3.8929,-3.8848,-3.8917,-3.8929,-3.8958,-3.9017,-3.9024,-3.8983,-3.8982,-3.9071,-3.908,-3.909,-3.9163,-3.912,-3.9125,-3.9128,-3.9298,-3.93,-3.9302,0,0,0,0,0,0,-3.8774,-3.8789,-3.8919,-3.8863,-3.8879,-3.8921,-3.8955,-3.8961,-3.8984,-3.9027,-3.9034,-3.8999,-3.907,-3.9082,-3.9141,-3.9166,-3.9127,-3.9132,-3.9296,-3.9299,-3.9301,-3.9309,0,0,0,0,0,0,-3.8769,-3.8788,-3.881,-3.8863,-3.8882,-3.897,-3.8956,-3.8964,-3.8993,-3.8993,-3.9043,-3.905,-3.907,-3.9134,-3.9146,-3.9173,-3.9136,-3.9294,-3.9297,-3.93,-3.9307,-3.9311,-3.9316,0,0,0,0,0,-3.8763,-3.8807,-3.8811,-3.8827,-3.8912,-3.8971,-3.8982,-3.9006,-3.8994,-3.9018,-3.9046,-3.9049,-3.9162,-3.914,-3.9154,-3.9182,-3.9293,-3.9296,-3.93,-3.9305,-3.9311,-3.9315,0,0,0,0,0,0,-3.8754,-3.8814,-3.882,-3.8882,-3.8922,-3.8973,-3.9003,-3.901,-3.9053,-3.9051,-3.9076,-3.9088,-3.9146,-3.917,-3.9144,-3.9243,-3.9226,-3.9233,-3.9225,-3.9231,-3.9235,-3.9228,-3.914,0,0,0,0,0,-3.876,-3.8804,-3.8854,-3.8904,-3.8924,-3.896,-3.8987,-3.9002,-3.9043,-3.906,-3.9092,-3.9131,-3.9176,-3.9204,-3.9248,-3.931,-3.9323,-3.9337,-3.9341,-3.9345,-3.935,-3.9388,-3.9396,-3.9314,-3.9314,-3.9314,0,0,-3.8771,-3.8809,-3.8835,-3.8904,-3.8936,-3.8981,-3.8974,-3.9021,-3.9055,-3.9066,-3.9125,-3.915,-3.9196,-3.9258,-3.9286,-3.9279,-3.9376,-3.935,-3.9352,-3.9356,-3.9393,-3.94,-3.9407,-3.9317,-3.9316,-3.9316,0,0,-3.8815,-3.8848,-3.8896,-3.8929,-3.8979,-3.9004,-3.9015,-3.9066,-3.9085,-3.9144,-3.9154,-3.9194,-3.927,-3.9303,-3.9329,-3.939,-3.9395,-3.9403,-3.9427,-3.9463,-3.9469,-3.9475,-3.9499,-3.9507,-3.9409,-3.9409,-3.9409,0,-3.8822,-3.8892,-3.8918,-3.8967,-3.8997,-3.9012,-3.906,-3.9091,-3.9152,-3.9172,-3.9164,-3.9262,-3.9293,-3.9364,-3.938,-3.94,-3.9414,-3.9398,-3.9467,-3.9473,-3.9478,-3.9501,-3.951,-3.941,-3.941,-3.9409,-3.9409,0,-3.89,-3.8948,-3.898,-3.9042,-3.9076,-3.9123,-3.9157,-3.9188,-3.9201,-3.9226,-3.9288,-3.9327,-3.9379,-3.9397,-3.9409,-3.9471,-3.9465,-3.9461,-3.9446,-3.9487,-3.9509,-3.9517,-3.9411,-3.9411,-3.941,-3.941,0,0,-3.8939,-3.9017,-3.9029,-3.9058,-3.9116,-3.9154,-3.9203,-3.9257,-3.9284,-3.9326,-3.9369,-3.9434,-3.9432,-3.9462,-3.9478,-3.951,-3.9558,-3.9503,-3.9504,-3.9513,-3.9632,-3.9635,-3.9645,-3.9562,-3.9564,-3.9565,-3.9628,0,-3.8991,-3.9082,-3.9108,-3.9184,-3.923,-3.9246,-3.9289,-3.9329,-3.9355,-3.9397,-3.9425,-3.9472,-3.9464,-3.9483,-3.9516,-3.9546,-3.9583,-3.9541,-3.9602,-3.9604,-3.9591,-3.9656,-3.9659,-3.9716,-3.9637,-3.9638,-3.9639,0,-3.9064,-3.9111,-3.9192,-3.9247,-3.9267,-3.9306,-3.9359,-3.9399,-3.9445,-3.9462,-3.9498,-3.9512,-3.9564,-3.9546,-3.9619,-3.9591,-3.9617,-3.9636,-3.9639,-3.9646,-3.9625,-3.9666,-3.9735,-3.9744,-3.9653,-3.9652,-3.9651,0,-3.9087,-3.917,-3.923,-3.9254,-3.9319,-3.9347,-3.9375,-3.942,-3.9452,-3.9498,-3.9519,-3.957,-3.9598,-3.9637,-3.9664,-3.9648,-3.9736,-3.9719,-3.9752,-3.9751,-3.9769,-3.9768,-3.9845,-3.9785,-3.9785,-3.9785,-3.9784,0,-3.9143,-3.9192,-3.9241,-3.9278,-3.9335,-3.9365,-3.9419,-3.9448,-3.9489,-3.9532,-3.9548,-3.9588,-3.9622,-3.9666,-3.9688,-3.9746,-3.9758,-3.9773,-3.9779,-3.9773,-3.9771,-3.9791,-3.9788,-3.9787,-3.9786,-3.9786,-3.9785,0,-3.9177,-3.9212,-3.9279,-3.9337,-3.9353,-3.9392,-3.9441,-3.9478,-3.9505,-3.956,-3.9574,-3.9617,-3.967,-3.9702,-3.9768,-3.9783,-3.9849,-3.9851,-3.9834,-3.9836,-3.9868,-3.9865,-3.9961,-3.9976,-3.9904,-3.9905,-3.9906,0,-3.9211,-3.925,-3.9313,-3.9345,-3.9374,-3.9423,-3.9457,-3.9488,-3.9522,-3.9581,-3.9611,-3.9666,-3.9711,-3.9796,-3.9833,-3.9884,-3.9889,-3.992,-3.9897,-3.9891,-3.9892,-3.989,-3.9895,-3.9923,-3.9924,-3.9925,-3.9925,0,-3.9268,-3.9285,-3.9333,-3.9389,-3.9429,-3.9473,-3.9518,-3.9542,-3.9581,-3.9619,-3.9675,-3.9711,-3.9781,-3.9836,-3.9892,-3.992,-3.993,-3.9932,-3.9943,-3.9937,-3.9926,-3.9935,-3.9846,-3.993,-3.9929,-3.9929,-3.9929,-3.9928,-3.9305,-3.9341,-3.9393,-3.9447,-3.9484,-3.9526,-3.9565,-3.9598,-3.9646,-3.9707,-3.9723,-3.9783,-3.9831,-3.9907,-3.9937,-3.9984,-3.9979,-3.9994,-3.9998,-4.0001,-4.0003,-3.9918,-3.9994,-3.9994,-3.9994,-3.9994,-3.9994,0,-3.9364,-3.9399,-3.9449,-3.9512,-3.9555,-3.9562,-3.9613,-3.9648,-3.9701,-3.9746,-3.9792,-3.9858,-3.9912,-3.9954,-4.0009,-4.0039,-4.0045,-4.0053,-4.0051,-4.0058,-4.0003,-3.999,-4.0047,-4.0047,-4.0047,-4.0047,-4.0047,-4.0047,-3.94,-3.9463,-3.9486,-3.9569,-3.9603,-3.9663,-3.9692,-3.9731,-3.9767,-3.9841,-3.9887,-3.9915,-3.9959,-4.0019,-4.0069,-4.008,-4.01,-4.0108,-4.012,-4.0068,-4.0062,-4.0056,-4.0043,-4.0112,-4.0112,-4.0171,-4.0171,-4.0172]}]]